Location: Home
(42.5358°N, 72.7383°W)
Time: 12:26:45
(UTC-05:00)

Transit 4A - Pass Details

Date: 30 November 2021
Orbit: 863 x 981 km, 66.8° (Epoch: 26 January)

Event Time Altitude Azimuth Distance (km) Brightness Sun altitude
Rises 06:17:12 0° 317° (NW) 3,628 - -8.0°
Exits shadow 06:19:38 - 307° (NW) 2,868 9.8 -7.6°
Reaches altitude 10° 06:20:14 10° 303° (WNW) 2,695 9.7 -7.5°
Maximum altitude 06:24:59 23° 254° (WSW) 1,937 9.2 -6.6°
Drops below altitude 10° 06:29:47 10° 205° (SSW) 2,719 10.4 -5.8°
Sets 06:32:53 0° 191° (S) 3,667 11.2 -5.3°
